Change the Weather History Date:

Tuesday, September 17, 2013

  Actual Average (KLWV) Record (KLWV)
Temperature  
Mean Temperature 65 °F 69 °F  
Max Temperature 80 °F 82 °F 91 °F (1991)
Min Temperature 50 °F 57 °F 44 °F (2014)
Degree Days  
Heating Degree Days 0 1  
Month to date heating degree days 4  
Since 1 July heating degree days 5  
Cooling Degree Days 0 5  
Month to date cooling degree days 123  
Year to date cooling degree days 1306  
Growing Degree Days 15 (Base 50)    
Moisture  
Dew Point 54 °F    
Average Humidity 71    
Maximum Humidity 96    
Minimum Humidity 36    
Precipitation  
Precipitation 0.00 in 0.08 in 2.46 in (1980)
Month to date precipitation 1.82  
Year to date precipitation 31.17  
Sea Level Pressure  
Sea Level Pressure 30.23 in    
Wind  
Wind Speed 3 mph (East)    
Max Wind Speed 12 mph    
Max Gust Speed 16 mph    
Visibility 10 miles    
Events      
T = Trace of Precipitation, MM = Missing Value Source: NWS Daily Summary

Daily Weather History Graph

Daily Weather History Graph

Search for Another Location

Airport or City:

Trip Planner

Search our weather history database for the weather conditions in past years. The results will help you decide how hot, cold, wet, or windy it might be!

Date:

Astronomy

Sep. 17, 2013 Rise Set
Actual Time 6:33 AM CDT 6:55 PM CDT
Civil Twilight 6:07 AM CDT 7:21 PM CDT
Nautical Twilight 5:35 AM CDT 7:53 PM CDT
Astronomical Twilight 5:03 AM CDT 8:25 PM CDT
Moon 5:41 PM CDT (9/17) 4:28 AM CDT (9/17)
Length of Visible Light 13h 14m
Length of Day
12h 21m
Waxing Gibbous, 96% of the Moon is Illuminated
Sep 17
Waxing Gibbous
Sep 19
Full
Sep 26
Last Quarter
Oct 4
New
Oct 11
First Quarter

Hourly Weather History & Observations

Time (CDT) Temp. Dew Point Humidity Pressure Visibility Wind Dir Wind Speed Gust Speed Precip Events Conditions
12:15 AM 57.2 °F 53.6 °F 88% 30.29 in 10.0 mi NE 3.5 mph - N/A   Clear
12:35 AM 55.8 °F 52.9 °F 90% 30.29 in 10.0 mi NE 3.5 mph - N/A   Clear
12:55 AM 55.4 °F 52.7 °F 91% 30.29 in 10.0 mi NNE 3.5 mph - N/A   Scattered Clouds
1:15 AM 55.0 °F 52.5 °F 91% 30.29 in 10.0 mi NNE 3.5 mph - N/A   Clear
1:35 AM 53.2 °F 51.1 °F 92% 30.29 in 10.0 mi Calm Calm - N/A   Clear
1:55 AM 53.1 °F 51.1 °F 93% 30.29 in 10.0 mi Calm Calm - N/A   Scattered Clouds
2:15 AM 53.2 °F 51.6 °F 94% 30.29 in 10.0 mi Calm Calm - N/A   Mostly Cloudy
2:35 AM 53.2 °F 51.8 °F 95% 30.29 in 10.0 mi Calm Calm - N/A   Scattered Clouds
2:55 AM 52.7 °F 50.9 °F 94% 30.28 in 10.0 mi Calm Calm - N/A   Clear
3:15 AM 52.5 °F 51.1 °F 95% 30.28 in 10.0 mi Calm Calm - N/A   Clear
3:35 AM 52.0 °F 50.7 °F 95% 30.27 in 10.0 mi Calm Calm - N/A   Clear
3:55 AM 52.3 °F 51.1 °F 95% 30.27 in 10.0 mi Calm Calm - N/A   Clear
4:15 AM 52.0 °F 50.9 °F 96% 30.27 in 10.0 mi Calm Calm - N/A   Clear
4:35 AM 51.8 °F 50.2 °F 94% 30.27 in 10.0 mi Calm Calm - N/A   Clear
4:55 AM 51.8 °F 50.4 °F 95% 30.27 in 10.0 mi Calm Calm - N/A   Clear
5:15 AM 51.6 °F 50.4 °F 95% 30.27 in 10.0 mi Calm Calm - N/A   Clear
5:35 AM 51.8 °F 50.5 °F 95% 30.27 in 10.0 mi Calm Calm - N/A   Clear
5:55 AM 52.0 °F 50.9 °F 96% 30.28 in 10.0 mi Calm Calm - N/A   Clear
6:15 AM 52.2 °F 51.1 °F 96% 30.28 in 10.0 mi NE 3.5 mph - N/A   Clear
6:35 AM 50.9 °F 49.5 °F 95% 30.28 in 10.0 mi NE 3.5 mph - N/A   Clear
6:55 AM 51.8 °F 50.4 °F 95% 30.29 in 10.0 mi Calm Calm - N/A   Clear
7:15 AM 52.2 °F 50.7 °F 95% 30.29 in 10.0 mi NE 3.5 mph - N/A   Clear
7:35 AM 55.2 °F 54.0 °F 96% 30.29 in 10.0 mi Calm Calm - N/A   Clear
7:55 AM 58.1 °F 54.7 °F 88% 30.29 in 10.0 mi East 3.5 mph - N/A   Clear
8:15 AM 59.2 °F 54.9 °F 86% 30.29 in 10.0 mi East 6.9 mph - N/A   Clear
8:35 AM 60.1 °F 54.9 °F 83% 30.29 in 10.0 mi East 6.9 mph - N/A   Clear
8:55 AM 62.8 °F 55.8 °F 78% 30.29 in 10.0 mi East 6.9 mph - N/A   Clear
9:15 AM 64.2 °F 55.8 °F 74% 30.29 in 10.0 mi East 9.2 mph - N/A   Clear
9:35 AM 65.7 °F 56.3 °F 72% 30.29 in 10.0 mi ESE 9.2 mph - N/A   Clear
9:55 AM 67.3 °F 56.5 °F 68% 30.29 in 10.0 mi East 9.2 mph - N/A   Clear
10:15 AM 70.0 °F 57.4 °F 64% 30.29 in 10.0 mi ESE 5.8 mph - N/A   Clear
10:35 AM 71.6 °F 57.2 °F 60% 30.28 in 10.0 mi East 6.9 mph - N/A   Clear
10:55 AM 73.2 °F 57.2 °F 57% 30.27 in 10.0 mi East 11.5 mph - N/A   Clear
11:15 AM 74.3 °F 57.0 °F 55% 30.27 in 10.0 mi East 6.9 mph - N/A   Clear
11:35 AM 74.5 °F 56.8 °F 54% 30.27 in 10.0 mi East 8.1 mph - N/A   Clear
11:55 AM 74.7 °F 56.5 °F 53% 30.26 in 10.0 mi East 8.1 mph - N/A   Clear
12:15 PM 76.5 °F 54.7 °F 47% 30.25 in 10.0 mi ESE 5.8 mph - N/A   Clear
12:35 PM 76.5 °F 54.1 °F 46% 30.24 in 10.0 mi East 8.1 mph - N/A   Clear
12:55 PM 76.1 °F 53.8 °F 46% 30.23 in 10.0 mi ESE 4.6 mph - N/A   Clear
1:15 PM 78.4 °F 54.7 °F 44% 30.23 in 10.0 mi East 5.8 mph - N/A   Clear
1:35 PM 78.4 °F 54.3 °F 43% 30.22 in 10.0 mi East 4.6 mph - N/A   Scattered Clouds
1:55 PM 78.6 °F 52.0 °F 39% 30.21 in 10.0 mi ESE 11.5 mph 16.1 mph N/A   Clear
2:15 PM 79.2 °F 52.0 °F 39% 30.19 in 10.0 mi ESE 8.1 mph - N/A   Clear
2:35 PM 79.0 °F 50.4 °F 37% 30.19 in 10.0 mi SSE 8.1 mph - N/A   Clear
2:55 PM 78.6 °F 51.6 °F 39% 30.18 in 10.0 mi SSE 6.9 mph - N/A   Clear
3:15 PM 79.9 °F 52.0 °F 38% 30.17 in 10.0 mi SSE 6.9 mph - N/A   Clear
3:35 PM 79.0 °F 51.6 °F 38% 30.17 in 10.0 mi SSE 5.8 mph 16.1 mph N/A   Clear
3:55 PM 80.2 °F 51.1 °F 36% 30.17 in 10.0 mi SSE 6.9 mph - N/A   Clear
4:15 PM 78.8 °F 53.6 °F 42% 30.17 in 10.0 mi SE 4.6 mph - N/A   Clear
4:35 PM 77.9 °F 53.4 °F 43% 30.17 in 10.0 mi SSE 6.9 mph - N/A   Clear
4:55 PM 77.0 °F 55.0 °F 47% 30.16 in 10.0 mi SSE 4.6 mph - N/A   Clear
5:15 PM 78.4 °F 54.9 °F 44% 30.16 in 10.0 mi South 6.9 mph - N/A   Clear
5:35 PM 76.5 °F 55.4 °F 48% 30.16 in 10.0 mi SSE 3.5 mph - N/A   Scattered Clouds
5:55 PM 75.2 °F 56.1 °F 51% 30.16 in 10.0 mi East 3.5 mph - N/A   Mostly Cloudy
6:15 PM 73.4 °F 57.4 °F 57% 30.16 in 10.0 mi ESE 3.5 mph - N/A   Mostly Cloudy
6:35 PM 72.7 °F 57.6 °F 59% 30.15 in 10.0 mi Calm Calm - N/A   Overcast
6:55 PM 71.1 °F 58.6 °F 65% 30.15 in 10.0 mi East 3.5 mph - N/A   Overcast
7:15 PM 70.0 °F 59.0 °F 68% 30.14 in 10.0 mi East 4.6 mph - N/A   Mostly Cloudy
7:35 PM 69.8 °F 58.8 °F 68% 30.15 in 10.0 mi East 4.6 mph - N/A   Mostly Cloudy
7:55 PM 68.7 °F 58.5 °F 70% 30.15 in 10.0 mi East 5.8 mph - N/A   Mostly Cloudy
8:15 PM 68.9 °F 58.1 °F 68% 30.15 in 10.0 mi East 6.9 mph - N/A   Overcast
8:35 PM 67.8 °F 58.3 °F 71% 30.14 in 10.0 mi East 4.6 mph - N/A   Mostly Cloudy
8:55 PM 67.1 °F 58.5 °F 74% 30.15 in 10.0 mi ESE 3.5 mph - N/A   Mostly Cloudy
9:15 PM 66.4 °F 58.3 °F 75% 30.15 in 10.0 mi East 3.5 mph - N/A   Overcast
9:35 PM 64.8 °F 58.1 °F 79% 30.15 in 10.0 mi East 4.6 mph - N/A   Scattered Clouds
9:55 PM 64.0 °F 57.6 °F 79% 30.15 in 10.0 mi East 3.5 mph - N/A   Clear
10:15 PM 64.0 °F 57.7 °F 80% 30.14 in 10.0 mi ESE 5.8 mph - N/A   Clear
10:35 PM 64.8 °F 57.7 °F 78% 30.14 in 10.0 mi Calm Calm - N/A   Clear
11:15 PM 63.9 °F 58.5 °F 83% 30.14 in 10.0 mi Calm Calm - N/A   Clear
11:35 PM 64.2 °F 58.8 °F 83% 30.14 in 10.0 mi Calm Calm - N/A   Clear
11:55 PM 64.8 °F 59.0 °F 82% 30.13 in 10.0 mi Calm Calm - N/A   Clear